Location: Unspecified
(0.0000°N, 0.0000°E)
Time: 20:23:20
(UTC+00:00)

Hubble Space Telescope - Pass Details

Date: 17 April 2018
Orbit: 537 x 540 km, 28.5° (Epoch: 11 November)

Event Time Altitude Azimuth Distance (km) Brightness Sun altitude
Rises 18:34:56 0° 210° (SSW) 2,680 4.6 -8.7°
Reaches altitude 10° 18:38:16 10° 182° (S) 1,789 3.3 -9.5°
Maximum altitude 18:40:16 13° 153° (SSE) 1,594 2.8 -10.0°
Enters shadow 18:41:52 11° 129° (SE) 1,721 2.8 -10.4°
